Weather History for EPWR - February, 2014

Change the Weather History Date:

Wednesday, February 19, 2014

  Actual Average Record
Temperature  
Mean Temperature 41 °F -  
Max Temperature 48 °F 43 °F 48 °F (2014)
Min Temperature 34 °F 28 °F 19 °F (2009)
Degree Days  
Heating Degree Days 24    
Moisture  
Dew Point 36 °F    
Average Humidity 74    
Maximum Humidity 92    
Minimum Humidity 61    
Precipitation  
Precipitation 0.00 in 0.03 in - ()
Sea Level Pressure  
Sea Level Pressure 29.91 in    
Wind  
Wind Speed 5 mph ()    
Max Wind Speed 9 mph    
Max Gust Speed -    
Visibility 11.8 miles    
Events      
Averages and records for this station are not official NWS values.
T = Trace of Precipitation, MM = Missing Value Source: Averaged Metar Reports

Daily Weather History Graph

Daily Weather History Graph

Search for Another Location

Airport or City:

Trip Planner

Search our weather history database for the weather conditions in past years. The results will help you decide how hot, cold, wet, or windy it might be!

Date:

Astronomy

Feb. 19, 2014 Rise Set
Actual Time 6:58 AM CET 5:15 PM CET
Civil Twilight 6:24 AM CET 5:49 PM CET
Nautical Twilight 5:45 AM CET 6:27 PM CET
Astronomical Twilight 5:07 AM CET 7:06 PM CET
Moon 10:26 PM CET (2/19) 8:21 AM CET (2/19)
Length of Visible Light 11h 25m
Length of Day
10h 17m
Waning Gibbous, 82% of the Moon is Illuminated
Feb 19
Waning Gibbous
Feb 22
Last Quarter
Mar 1
New
Mar 8
First Quarter
Mar 16
Full

Hourly Weather History & Observations

Time (CET) Temp. Windchill Dew Point Humidity Pressure Visibility Wind Dir Wind Speed Gust Speed Precip Events Conditions
12:00 AM 37 °F - 34 °F 84% 29.95 in 31 mi SSE 6.7 mph - -   Overcast
12:00 AM 41.0 °F 39.0 °F 33.8 °F 76% 29.92 in - SSE 3.5 mph - N/A   Clear
12:30 AM 41.0 °F 39.0 °F 33.8 °F 76% 29.92 in - South 3.5 mph - N/A   Clear
1:00 AM 39 °F - 35 °F 79% 29.95 in 31 mi South 6.7 mph - -   Overcast
1:00 AM 41.0 °F 38.0 °F 33.8 °F 76% 29.92 in - South 4.6 mph - N/A   Clear
1:30 AM 39.2 °F - 33.8 °F 81% 29.92 in - Variable 2.3 mph - N/A   Clear
2:00 AM 35 °F - 32 °F 83% 29.94 in 31 mi SSW 4.5 mph - -   Mostly Cloudy
2:00 AM 39.2 °F 35.9 °F 33.8 °F 81% 29.92 in - SW 4.6 mph - N/A   Clear
2:30 AM 41.0 °F 39.0 °F 33.8 °F 76% 29.92 in - SW 3.5 mph - N/A   Clear
3:00 AM 39 °F - 36 °F 87% 29.92 in 31 mi SSW 4.5 mph - -   Mostly Cloudy
3:00 AM 41.0 °F - 33.8 °F 76% 29.89 in - Variable 2.3 mph - N/A   Clear
3:30 AM 37.4 °F - 33.8 °F 87% 29.89 in - Variable 2.3 mph - N/A   Clear
4:00 AM 39 °F - 37 °F 89% 29.91 in 31 mi SSW 4.5 mph - -   Overcast
4:00 AM 41.0 °F 38.0 °F 35.6 °F 81% 29.89 in - SW 4.6 mph - N/A   Clear
4:30 AM 42.8 °F 41.1 °F 35.6 °F 76% 29.89 in - SSW 3.5 mph - N/A   Clear
5:00 AM 38 °F - 36 °F 92% 29.91 in 31 mi SSE 6.7 mph - -   Overcast
5:00 AM 42.8 °F 41.1 °F 35.6 °F 76% 29.89 in - SE 3.5 mph - N/A   Clear
5:30 AM 41.0 °F - 35.6 °F 81% 29.89 in - Variable 2.3 mph - N/A   Clear
6:00 AM 38 °F - 36 °F 90% 29.89 in 31 mi East 4.5 mph - -   Overcast
6:00 AM 42.8 °F 41.1 °F 35.6 °F 76% 29.86 in - SW 3.5 mph - N/A   Clear
6:30 AM 41.0 °F - 35.6 °F 81% 29.89 in - Variable 1.2 mph - N/A   Clear
7:00 AM 37 °F - 35 °F 90% 29.90 in 31 mi SE 2.2 mph - -   Overcast
7:00 AM 39.2 °F - 35.6 °F 87% 29.86 in - Variable 2.3 mph - N/A   Clear
7:30 AM 41.0 °F 39.0 °F 35.6 °F 81% 29.89 in - SW 3.5 mph - N/A   Clear
8:00 AM 41 °F - 38 °F 86% 29.90 in 19 mi SW 6.7 mph - -   Overcast
8:00 AM 42.8 °F 40.1 °F 35.6 °F 76% 29.89 in - SW 4.6 mph - N/A   Clear
8:30 AM 42.8 °F 38.6 °F 35.6 °F 76% 29.89 in - WSW 6.9 mph - N/A   Clear
9:00 AM 43 °F - 38 °F 77% 29.90 in 19 mi SW 8.9 mph - -   Overcast
9:00 AM 42.8 °F 39.3 °F 35.6 °F 76% 29.89 in - WSW 5.8 mph - N/A   Clear
9:30 AM 44.6 °F 40.7 °F 35.6 °F 71% 29.89 in - WSW 6.9 mph - N/A   Clear
10:00 AM 44 °F - 38 °F 74% 29.91 in 19 mi SW 6.7 mph - -   Overcast
10:00 AM 44.6 °F 41.4 °F 35.6 °F 71% 29.89 in - WSW 5.8 mph - N/A   Clear
10:30 AM 44.6 °F 40.7 °F 35.6 °F 71% 29.89 in - SW 6.9 mph - N/A   Clear
11:00 AM 45 °F - 38 °F 70% 29.91 in 19 mi SSW 6.7 mph - -   Overcast
11:00 AM 44.6 °F 41.4 °F 37.4 °F 76% 29.89 in - SW 5.8 mph - N/A   Clear
11:30 AM 46.4 °F 42.9 °F 35.6 °F 66% 29.89 in - SW 6.9 mph - N/A   Clear
12:00 PM 46 °F - 38 °F 65% 29.91 in 19 mi SW 6.7 mph - -   Overcast
12:00 PM 46.4 °F 43.5 °F 35.6 °F 66% 29.89 in - SW 5.8 mph - N/A   Clear
12:30 PM 46.4 °F 42.9 °F 37.4 °F 71% 29.89 in - WSW 6.9 mph - N/A   Clear
1:00 PM 46 °F - 39 °F 68% 29.90 in 19 mi WSW 8.9 mph - -   Overcast
1:00 PM 46.4 °F 42.9 °F 37.4 °F 71% 29.89 in - WSW 6.9 mph - N/A   Clear
1:30 PM 46.4 °F 43.5 °F 37.4 °F 71% 29.89 in - WSW 5.8 mph - N/A   Clear
2:00 PM 47 °F - 39 °F 67% 29.89 in 19 mi SW 6.7 mph - -   Partly Cloudy
2:00 PM 48.2 °F - 37.4 °F 66% 29.89 in - WSW 5.8 mph - N/A   Clear
2:30 PM 48.2 °F - 37.4 °F 66% 29.89 in 6.2 mi SW 6.9 mph - N/A   Scattered Clouds
3:00 PM 48 °F - 39 °F 62% 29.88 in 19 mi SW 6.7 mph - -   Mostly Cloudy
3:00 PM 48.2 °F - 37.4 °F 66% 29.89 in 6.2 mi SW 5.8 mph - N/A   Mostly Cloudy
3:30 PM 48.2 °F - 37.4 °F 66% 29.89 in 6.2 mi SW 4.6 mph - N/A   Mostly Cloudy
4:00 PM 48 °F - 39 °F 61% 29.89 in 19 mi SW 6.7 mph - -   Mostly Cloudy
4:00 PM 48.2 °F - 37.4 °F 66% 29.89 in 6.2 mi WSW 4.6 mph - N/A   Mostly Cloudy
4:30 PM 48.2 °F - 37.4 °F 66% 29.89 in 6.2 mi SW 5.8 mph - N/A   Mostly Cloudy
5:00 PM 46 °F - 38 °F 66% 29.90 in 19 mi WSW 4.5 mph - -   Mostly Cloudy
5:00 PM 48.2 °F - 37.4 °F 66% 29.89 in 6.2 mi WSW 3.5 mph - N/A   Partly Cloudy
5:30 PM 46.4 °F 45.2 °F 37.4 °F 71% 29.89 in 6.2 mi WSW 3.5 mph - N/A   Partly Cloudy
6:00 PM 45 °F - 39 °F 72% 29.91 in 12 mi WSW 4.5 mph - -   Mostly Cloudy
6:00 PM 46.4 °F 45.2 °F 37.4 °F 71% 29.89 in - WSW 3.5 mph - N/A   Clear
6:30 PM 46.4 °F 45.2 °F 37.4 °F 71% 29.92 in - West 3.5 mph - N/A   Clear
7:00 PM 44 °F - 40 °F 79% 29.92 in 12 mi SW 4.5 mph - -   Mostly Cloudy
7:00 PM 46.4 °F 44.3 °F 37.4 °F 71% 29.92 in 6.2 mi SW 4.6 mph - N/A   Scattered Clouds
7:30 PM 46.4 °F 44.3 °F 37.4 °F 71% 29.92 in 6.2 mi WSW 4.6 mph - N/A   Partly Cloudy
8:00 PM 44 °F - 38 °F 73% 29.93 in 12 mi West 4.5 mph - -   Mostly Cloudy
8:00 PM 44.6 °F 42.2 °F 37.4 °F 76% 29.92 in - West 4.6 mph - N/A   Clear
8:30 PM 44.6 °F 41.4 °F 35.6 °F 71% 29.92 in - WSW 5.8 mph - N/A   Clear
9:00 PM 42 °F - 38 °F 82% 29.94 in 16 mi WSW 6.7 mph - -   Scattered Clouds
9:00 PM 44.6 °F 41.4 °F 35.6 °F 71% 29.92 in 6.2 mi WSW 5.8 mph - N/A   Partly Cloudy
9:30 PM 44.6 °F 41.4 °F 35.6 °F 71% 29.95 in 6.2 mi West 5.8 mph - N/A   Scattered Clouds
10:00 PM 44 °F - 38 °F 71% 29.96 in 16 mi West 6.7 mph - -   Scattered Clouds
10:00 PM 44.6 °F 40.7 °F 35.6 °F 71% 29.95 in 6.2 mi West 6.9 mph - N/A   Partly Cloudy
10:30 PM 44.6 °F 41.4 °F 35.6 °F 71% 29.95 in 6.2 mi West 5.8 mph - N/A   Scattered Clouds
11:00 PM 44 °F - 39 °F 75% 29.96 in 16 mi West 4.5 mph - -   Mostly Cloudy
11:00 PM 44.6 °F 40.7 °F 35.6 °F 71% 29.95 in 6.2 mi West 6.9 mph - N/A   Mostly Cloudy
11:30 PM 44.6 °F 41.4 °F 35.6 °F 71% 29.95 in 6.2 mi WSW 5.8 mph - N/A   Mostly Cloudy